Location: Chilton Park
(37.7711°N, 100.0276°W)
Time: 00:35:35
(UTC+00:00)

Cosmos 1500 Rocket - Pass Details

Date: 01 July 2022
Orbit: 601 x 632 km, 82.5° (Epoch: 16 August)

Event Time Altitude Azimuth Distance (km) Brightness Sun altitude
Exits shadow 08:57:15 - 135° (SE) 2,225 6.3 -21.6°
Reaches altitude 10° 08:58:05 10° 128° (SE) 1,989 6.1 -21.5°
Maximum altitude 09:00:58 17° 86° (E) 1,572 6.0 -21.1°
Drops below altitude 10° 09:03:52 10° 45° (NE) 2,009 7.3 -20.8°
Sets 09:06:45 0° 26° (NNE) 2,926 8.6 -20.5°
